Location: Ammerl�gen
(47.2167°N, 9.6000°E)
Time: 15:33:30
(UTC+00:00)

FALCON 9 DEB - Pass Details

Date: 21 April 2021
Orbit: 368 x 388 km, 53.0° (Epoch: 07 May)

Event Time Altitude Azimuth Distance (km) Brightness Sun altitude
Rises 20:01:49 0° 224° (SW) 2,206 6.8 -16.0°
Reaches altitude 10° 20:03:53 10° 218° (SW) 1,360 5.6 -16.3°
Enters shadow 20:05:58 34° 190° (S) 629 3.6 -16.6°
